METEOR 2-11 DEB, 60008

Orbit data source: Space-Track

METEOR 2-11 DEB, 60008 is space debris in LEO originally from a launch on Thu, 05 Jul 1984 UTC launched from the Plesetsk Missile And Space Complex (PKMTR). Debris objects in space refer to the collection of defunct objects orbiting the Earth. Examples of debris include non-operational satellites, rocket bodies, and fragments generated from explosions, collisions, or faulty payload assembly.

Loading next visibility...
Identifier
60008, 1984-072AD
Orbit
LEO
Last TLE update
2 days ago
Origin
Manufacturer
Unknown
Mission
Spacecraft
Bus & Motor
Unknown
Mass
Unknown
Launch date (UTC)
1984-07-05 (41 years ago)
Launch vehicle
Unknown
Launch site
Plesetsk Missile And Space Complex (PKMTR)
Object type
Payload
Rocket body
Debris
Shape & HBR
Unknown
Radar Cross Section
Small (<0.1 m²)

Expand to show TLE details & history

TLE from 2 days ago
0 METEOR 2-11 DEB
1 60008U 84072AD  25182.50437168  .00002214  00000-0  13335-2 0  9993
2 60008  82.5071 253.1476 0040312 146.5459 213.8273 14.05931304584857
Epoch: 2025-07-01T12:06Z
TLE epoch observation values (Epoch: 2025-07-01T12:06:17.713Z)
Latitude
0.00006°
Longitude
151.77493°
Altitude
900.585 km
Speed
7.389 km/s
True Right ascension
16h 52m 35s
True Declination
0° 00' 00"
Sunlit
Object was in full shadow at epoch
Visualization orbit readout
Latitude
-51.38457°
Longitude
141.00015°
Altitude
921.657 km
Speed
7.375 km/s
Apparent Right ascension
22h 19m 24s
Apparent Declination
-80° 43' 12"
Sunlit
Object is in full shadow
Visualization observer readout
Local Sidereal Time
14:53:38
Azimuth
168.21° S
Elevation
-42.725°
Doppler factor
1
Orbital elements
Apogee altitude
899.672 km
Perigee altitude
841.231 km
Semi-major axis
7,248.589 km
Eccentricity
0.00403
Inclination
82.5071°
RAAN
253.1476°
Arg. of periapsis
146.5459°
True anomaly
Unknown
Mean anomaly
213.8273°
Eccentric anomaly
Unknown
Mean motion
3.51692 °/min
Orbital period
102.36 mins
BSTAR
0.0013335
Loading maneuver chart data...
Loading SW <> Apogee altitude chart data...
Loading historical data...
Loading historical data...
Loading historical data...
Loading historical data...
Loading historical data...
Loading historical data...
Loading historical data...

METEOR 2-11 DEB Visibility forecast

Observer location: undefined°, undefined°

Span
Click to sort rows by Start time (UTC) header in descending order
Start Az.
Max El. time (UTC)
Max El. Az.
Max El.
End time (UTC)
End Az.
10 mins2025-07-03 05:12:30.314Z178.611° S2025-07-03 05:17:30.314Z74.138° E43.964°2025-07-03 05:22:30.314Z11.482° NNE
4 mins2025-07-03 06:59:30.314Z273.924° WNW2025-07-03 07:01:30.314Z296.653° NW13.737°2025-07-03 07:03:30.314Z318.484° NNW
8 mins2025-07-03 15:56:30.314Z12.928° NNE2025-07-03 16:00:30.314Z90.611° ESE35.385°2025-07-03 16:04:30.314Z147.271° SSE
6 mins2025-07-03 17:40:30.314Z307.495° NW2025-07-03 17:42:30.314Z281.355° WNW19.532°2025-07-03 17:46:30.314Z231.358° WSW
|